Regional Weather Roundup
Issued by NWS

Home | Current Version | Previous Version | Graphics & Text | Print | Product List | Glossary On
Versions: 1 2 3 4 5 6 7 8 9 10 11 12 13 14 15 16 17 18 19 20 21 22 23 24 25 26 27 28 29 30 31 32 33 34 35 36 37 38 39 40 41 42 43 44 45 46 47 48 49 50
000
ASUS45 KPSR 211400
RWRAZ

PRELIMINARY ARIZONA REGIONAL HOURLY WEATHER ROUNDUP
NATIONAL WEATHER SERVICE PHOENIX AZ
700 AM MST THU AUG 21 2014

NOTE: FAIR INDICATES FEW OR NO CLOUDS BELOW 12,000 FEET WITH NO
SIGNIFICANT WEATHER AND/OR OBSTRUCTIONS TO VISIBILITY.

AZZ001>003-036-211500-
NORTHWEST ARIZONA

CITY           SKY/WX    TMP DP  RH WIND       PRES   REMARKS
KINGMAN        PTSUNNY   68  52  56 SE10      30.05R
$$

AZZ004>008-015-016-018-211500-
NORTH CENTRAL ARIZONA

CITY           SKY/WX    TMP DP  RH WIND       PRES   REMARKS
GRAND CANYON   PTSUNNY   48  46  93 NE3       30.26
WILLIAMS       PTSUNNY   50  46  87 SE5       30.32S
PRESCOTT       CLOUDY    61  49  64 S7        30.17R
FLAGSTAFF      PTSUNNY   49  45  86 CALM      30.29R
PAYSON         PTSUNNY   63  54  72 CALM      30.18R
PAGE           MOSUNNY   68  49  50 CALM      30.12R
$$

AZZ009>014-017-211500-
NORTHEAST ARIZONA

CITY           SKY/WX    TMP DP  RH WIND       PRES   REMARKS
WINSLOW        NOT AVBL
SAINT JOHNS    MOSUNNY   62  51  67 CALM      30.20R
WINDOW ROCK    MOSUNNY   53  39  59 S5        30.26R
$$

AZZ023-211500-
GREATER PHOENIX AREA

CITY           SKY/WX    TMP DP  RH WIND       PRES   REMARKS
PHOENIX        CLOUDY    83  62  49 E7        29.90R
GLENDALE       PTSUNNY   82  63  51 NW6       29.92R
DEER VALLEY    CLOUDY    80  63  55 CALM      29.93R
SCOTTSDALE     CLOUDY    81  62  52 CALM      29.95R
MESA-FALCON    CLOUDY    81  59  47 CALM      29.93
MESA-GATEWAY   PTSUNNY   79  64  61 SE6       29.95R
CHANDLER       PTSUNNY   81  63  54 NE3       29.92R
$$

AZZ027-028-211500-
SOUTHWEST MARICOPA COUNTY AND PINAL COUNTY

CITY           SKY/WX    TMP DP  RH WIND       PRES   REMARKS
CASA GRANDE    CLOUDY    79  57  47 CALM      29.94S
$$

AZZ503-504-507>509-211500-
SOUTHEAST ARIZONA

CITY           SKY/WX    TMP DP  RH WIND       PRES   REMARKS
TUCSON         CLOUDY    76  65  68 S5        30.03R
RYAN FIELD       N/A     77  64  65 S5        30.02R
NOGALES        CLOUDY    68  63  84 NE5       30.10R
SAFFORD        MOSUNNY   68  61  78 E5        30.03R
$$

AZZ020-021-025-026-031-211500-
SOUTHWEST ARIZONA

CITY           SKY/WX    TMP DP  RH WIND       PRES   REMARKS
YUMA           PTSUNNY   84  63  49 E5        29.83R
$$

CAZ031-033-041-043-047-048-061-211500-
SOUTHERN CALIFORNIA

CITY           SKY/WX    TMP DP  RH WIND       PRES   REMARKS
DOWNTOWN L.A.  CLEAR     66  61  84 CALM      29.93R
L.A. AIRPORT   MOCLDY    68  60  75 W5        29.94R
SAN DIEGO      CLOUDY    71  63  75 NW7       29.94R
BURBANK        CLEAR     65  59  81 CALM      29.94R
ONTARIO        PTCLDY    66  60  81 SW3       29.94R
RIVERSIDE      CLEAR     64  61  90 CALM      29.95R
PALM SPRINGS   PTCLDY    78  57  48 W3        29.85R
EL CENTRO NAS  PTCLDY    79  53  40 CALM      29.82R
IMPERIAL       PTCLDY    82  53  36 CALM      29.81R
BLYTHE         SUNNY     77  73  87 NE3       29.85R
$$

NVZ020-UTZ003-211500-
SOUTHERN NEVADA-UTAH

CITY           SKY/WX    TMP DP  RH WIND       PRES   REMARKS
LAS VEGAS      NOT AVBL
SALT LAKE CITY CLOUDY    68  51  54 SE9       30.04R
$$

NMZ009-TXZ055-211500-
NEW MEXICO-WEST TEXAS

CITY           SKY/WX    TMP DP  RH WIND       PRES   REMARKS
ALBUQUERQUE    MOSUNNY   70  46  42 CALM      30.17R
EL PASO        MOSUNNY   73  51  46 S3        30.07R
$$


........................KEY........................
SKY/WX - SKY CONDITION/WEATHER
TMP    - TEMPERATURE IN FAHRENHEIT
DP     - DEW POINT IN FAHRENHEIT
RH     - RELATIVE HUMIDITY IN PERCENT
WIND   - DIRECTION AND SPEED IN MILES PER HOUR (MPH)
VRB    - VARIABLE WIND DIRECTION
PRES   - MEAN SEA LEVEL PRESSURE IN INCHES OF MERCURY
         F - FALLING PRESSURE   R - RISING PRESSURE
         S - STEADY PRESSURE
VSB    - VISIBILITY IN MILES
HX     - HEAT INDEX IN FAHRENHEIT
WCI    - WIND CHILL INDEX IN FAHRENHEIT
TC     - TEMPERATURE IN CELSIUS WHICH IS ALSO KNOWN AS
         TEMPERATURE IN CENTIGRADE
AFB    - AIR FORCE BASE
         LUKE AFB IS LUKE AIR FORCE BASE
         DAVIS-MONTHAN IS DAVIS-MONTHAN AIR FORCE BASE
NAS    - NAVAL AIR STATION
         EL CENTRO NAS IS EL CENTRO NAVAL AIR STATION
N/A    - NOT AVAILABLE


USA.gov is the U.S. government's official web portal to all federal, state and local government web resources and services.